SAS9231 ENGM-EKCH

Flight info

Callsign SAS9231
Flight time 0h 53m
Altitude 37000
Route OKSAT2C OKSAT L996 KELIN DCT TOPLA L996 ERNOV ERNOV2A
Aircraft A320/M-VGDW/C

Departure

Time 2026-05-07 18:00
Airport Oslo-Gardermoen International Airport (ENGM)

Arrival

Time 2026-05-07 18:54
Airport Copenhagen Kastrup Airport (EKCH)
Time Latitude Longitude Altitude Speed Heading
2026-05-07 17:35 60.19565 11.09505 677 ft 0 kts 195°
2026-05-07 17:49 60.19571 11.09509 678 ft 2 kts 194°
2026-05-07 17:49 60.19585 11.09516 678 ft 2 kts 195°
2026-05-07 17:49 60.19598 11.09523 676 ft 2 kts 195°
2026-05-07 17:49 60.19612 11.09531 673 ft 2 kts 195°
2026-05-07 17:50 60.19625 11.09538 674 ft 2 kts 195°
2026-05-07 17:50 60.19635 11.09544 674 ft 1 kts 195°
2026-05-07 17:50 60.19642 11.09547 676 ft 1 kts 195°
2026-05-07 17:50 60.19648 11.09551 676 ft 1 kts 195°
2026-05-07 17:51 60.19654 11.09554 674 ft 1 kts 195°
2026-05-07 17:51 60.19659 11.09557 675 ft 1 kts 195°
2026-05-07 17:54 60.19658 11.09558 678 ft 0 kts 181°
2026-05-07 17:54 60.19657 11.09562 678 ft 0 kts 159°
2026-05-07 17:54 60.19656 11.09569 678 ft 0 kts 123°
2026-05-07 17:54 60.19657 11.09572 678 ft 1 kts 101°
2026-05-07 17:55 60.19684 11.09601 676 ft 11 kts 17°
2026-05-07 17:55 60.19777 11.09653 679 ft 15 kts 15°
2026-05-07 17:55 60.19885 11.09715 679 ft 11 kts 17°
2026-05-07 17:55 60.19918 11.09735 680 ft 3 kts 16°
2026-05-07 17:56 60.19943 11.09749 680 ft 5 kts 17°
2026-05-07 17:56 60.19992 11.09827 680 ft 13 kts 71°
2026-05-07 17:56 60.19965 11.10060 679 ft 21 kts 106°
2026-05-07 17:56 60.19920 11.10379 682 ft 25 kts 104°
2026-05-07 17:57 60.19885 11.10631 685 ft 15 kts 107°
2026-05-07 17:57 60.19865 11.10762 684 ft 15 kts 104°
2026-05-07 17:57 60.19823 11.11056 682 ft 18 kts 106°
2026-05-07 17:57 60.19786 11.11300 686 ft 14 kts 109°
2026-05-07 17:58 60.19741 11.11498 687 ft 17 kts 110°
2026-05-07 17:58 60.19706 11.11741 684 ft 19 kts 106°
2026-05-07 17:58 60.19637 11.11907 685 ft 15 kts 141°
2026-05-07 17:58 60.19588 11.11937 687 ft 7 kts 193°
2026-05-07 17:59 60.19577 11.11931 689 ft 3 kts 195°
2026-05-07 17:59 60.19546 11.11912 686 ft 8 kts 197°
2026-05-07 17:59 60.19278 11.11758 680 ft 78 kts 196°
2026-05-07 17:59 60.18548 11.11337 678 ft 137 kts 196°
2026-05-07 18:00 60.17507 11.10739 895 ft 164 kts 196°
2026-05-07 18:00 60.16391 11.10099 1498 ft 171 kts 195°
2026-05-07 18:00 60.15226 11.09439 2169 ft 177 kts 195°
2026-05-07 18:00 60.13996 11.09250 2858 ft 181 kts 168°
2026-05-07 18:01 60.12855 11.10310 3578 ft 181 kts 144°
2026-05-07 18:01 60.11848 11.11798 4274 ft 179 kts 144°
2026-05-07 18:01 60.10870 11.13346 4933 ft 180 kts 137°
2026-05-07 18:01 60.10004 11.15185 5529 ft 183 kts 132°
2026-05-07 18:02 60.08194 11.19288 6385 ft 215 kts 131°
2026-05-07 18:02 60.07151 11.21641 6779 ft 237 kts 131°
2026-05-07 18:02 60.05978 11.24158 7296 ft 256 kts 133°
2026-05-07 18:03 60.04766 11.26913 7963 ft 270 kts 127°
2026-05-07 18:03 60.03733 11.30133 8716 ft 280 kts 124°
2026-05-07 18:03 60.02381 11.32977 9495 ft 286 kts 146°
2026-05-07 18:03 60.00613 11.34867 10305 ft 290 kts 158°
2026-05-07 18:04 59.98687 11.36337 10836 ft 304 kts 163°
2026-05-07 18:04 59.96650 11.37816 11375 ft 318 kts 158°
2026-05-07 18:04 59.94617 11.39794 11894 ft 333 kts 154°
2026-05-07 18:04 59.92545 11.41954 12603 ft 338 kts 156°
2026-05-07 18:05 59.90433 11.43980 13291 ft 343 kts 158°
2026-05-07 18:05 59.88214 11.45970 14018 ft 348 kts 159°
2026-05-07 18:05 59.85985 11.47927 14651 ft 352 kts 160°
2026-05-07 18:05 59.83769 11.49878 15289 ft 357 kts 160°
2026-05-07 18:06 59.81483 11.51914 15937 ft 361 kts 159°
2026-05-07 18:06 59.79147 11.54022 16595 ft 366 kts 159°
2026-05-07 18:06 59.76821 11.56138 17247 ft 370 kts 159°
2026-05-07 18:06 59.74505 11.58260 17884 ft 374 kts 159°
2026-05-07 18:07 59.72135 11.60433 18522 ft 378 kts 159°
2026-05-07 18:07 59.69733 11.62629 19083 ft 382 kts 159°
2026-05-07 18:07 59.67305 11.64843 19650 ft 387 kts 159°
2026-05-07 18:07 59.64840 11.67023 20226 ft 389 kts 164°
2026-05-07 18:08 59.62224 11.68237 20771 ft 386 kts 177°
2026-05-07 18:08 59.59557 11.69007 21328 ft 390 kts 177°
2026-05-07 18:08 59.56860 11.69769 21867 ft 394 kts 177°
2026-05-07 18:08 59.54130 11.70530 22412 ft 398 kts 178°
2026-05-07 18:09 59.51412 11.71275 22963 ft 402 kts 178°
2026-05-07 18:09 59.48586 11.72045 23541 ft 406 kts 178°
2026-05-07 18:09 59.45777 11.72816 23994 ft 410 kts 178°
2026-05-07 18:09 59.42937 11.73601 24451 ft 413 kts 178°
2026-05-07 18:10 59.40076 11.74395 24911 ft 417 kts 178°
2026-05-07 18:10 59.37196 11.75201 25356 ft 420 kts 178°
2026-05-07 18:10 59.34298 11.76011 25801 ft 423 kts 178°
2026-05-07 18:10 59.31377 11.76822 26239 ft 425 kts 178°
2026-05-07 18:11 59.28441 11.77628 26661 ft 428 kts 178°
2026-05-07 18:11 59.26444 11.78175 26944 ft 430 kts 178°
2026-05-07 18:11 59.22496 11.79249 27487 ft 434 kts 178°
2026-05-07 18:11 59.19504 11.80069 27887 ft 437 kts 178°
2026-05-07 18:12 59.16483 11.80897 28288 ft 439 kts 178°
2026-05-07 18:12 59.13446 11.81730 28688 ft 442 kts 177°
2026-05-07 18:12 59.10394 11.82567 29076 ft 445 kts 177°
2026-05-07 18:12 59.07324 11.83406 29465 ft 447 kts 177°
2026-05-07 18:13 59.04222 11.84244 29854 ft 450 kts 177°
2026-05-07 18:13 59.01113 11.85086 30227 ft 453 kts 177°
2026-05-07 18:13 58.97988 11.85934 30551 ft 455 kts 177°
2026-05-07 18:13 58.94839 11.86785 30881 ft 458 kts 177°
2026-05-07 18:14 58.91674 11.87635 31204 ft 460 kts 177°
2026-05-07 18:14 58.88505 11.88485 31519 ft 462 kts 177°
2026-05-07 18:14 58.85314 11.89341 31883 ft 463 kts 177°
2026-05-07 18:14 58.82120 11.90203 32334 ft 462 kts 176°
2026-05-07 18:15 58.78943 11.91063 32778 ft 461 kts 176°
2026-05-07 18:15 58.75761 11.91918 33244 ft 461 kts 177°
2026-05-07 18:15 58.72591 11.92765 33693 ft 460 kts 176°
2026-05-07 18:15 58.69423 11.93608 34141 ft 459 kts 177°
2026-05-07 18:16 58.66258 11.94443 34527 ft 459 kts 176°
2026-05-07 18:16 58.63107 11.95271 34933 ft 457 kts 176°
2026-05-07 18:16 58.59962 11.96101 35354 ft 455 kts 176°
2026-05-07 18:16 58.56829 11.96930 35775 ft 453 kts 176°
2026-05-07 18:17 58.53714 11.97752 36166 ft 451 kts 176°
2026-05-07 18:17 58.50613 11.98566 36567 ft 449 kts 176°
2026-05-07 18:17 58.47526 11.99373 36950 ft 447 kts 176°
2026-05-07 18:17 58.44439 12.00178 37110 ft 447 kts 176°
2026-05-07 18:18 58.41358 12.00984 37137 ft 445 kts 176°
2026-05-07 18:18 58.35238 12.02589 37134 ft 444 kts 176°
2026-05-07 18:19 58.29162 12.04174 37137 ft 443 kts 176°
2026-05-07 18:19 58.23051 12.05756 37135 ft 443 kts 176°
2026-05-07 18:20 58.16946 12.07353 37132 ft 443 kts 175°
2026-05-07 18:20 58.10837 12.08973 37134 ft 443 kts 175°
2026-05-07 18:21 58.04732 12.10586 37129 ft 443 kts 175°
2026-05-07 18:21 57.98622 12.12186 37128 ft 443 kts 175°
2026-05-07 18:22 57.92520 12.13790 37130 ft 444 kts 175°
2026-05-07 18:22 57.86397 12.15383 37131 ft 444 kts 175°
2026-05-07 18:23 57.80283 12.16959 37113 ft 444 kts 175°
2026-05-07 18:23 57.74163 12.18542 37111 ft 444 kts 175°
2026-05-07 18:24 57.68047 12.20118 36817 ft 445 kts 175°
2026-05-07 18:24 57.64981 12.20908 36339 ft 444 kts 174°
2026-05-07 18:24 57.61917 12.21700 35874 ft 445 kts 174°
2026-05-07 18:24 57.58854 12.22482 35422 ft 445 kts 174°
2026-05-07 18:25 57.55780 12.23268 34977 ft 443 kts 174°
2026-05-07 18:25 57.52734 12.24041 34541 ft 441 kts 174°
2026-05-07 18:25 57.49702 12.24803 34104 ft 439 kts 174°
2026-05-07 18:25 57.46680 12.25565 33609 ft 436 kts 174°
2026-05-07 18:26 57.43685 12.26324 33118 ft 433 kts 174°
2026-05-07 18:26 57.40712 12.27077 32638 ft 430 kts 174°
2026-05-07 18:26 57.38756 12.27573 32324 ft 427 kts 174°
2026-05-07 18:26 57.35816 12.28316 31847 ft 424 kts 174°
2026-05-07 18:27 57.32909 12.29046 31397 ft 421 kts 174°
2026-05-07 18:27 57.30017 12.29773 30943 ft 418 kts 174°
2026-05-07 18:27 57.27142 12.30495 30490 ft 415 kts 174°
2026-05-07 18:27 57.24283 12.31214 30029 ft 412 kts 174°
2026-05-07 18:28 57.21450 12.31925 29506 ft 410 kts 174°
2026-05-07 18:28 57.18635 12.32629 28999 ft 408 kts 174°
2026-05-07 18:28 57.15796 12.33339 28499 ft 406 kts 174°
2026-05-07 18:28 57.13018 12.34035 28150 ft 400 kts 174°
2026-05-07 18:29 57.10323 12.34711 28130 ft 395 kts 174°
2026-05-07 18:29 57.04868 12.36070 28125 ft 395 kts 174°
2026-05-07 18:29 57.02160 12.36741 27768 ft 392 kts 174°
2026-05-07 18:30 56.99458 12.37409 27433 ft 388 kts 174°
2026-05-07 18:30 56.96776 12.38071 27033 ft 391 kts 174°
2026-05-07 18:30 56.94106 12.38729 26524 ft 393 kts 174°
2026-05-07 18:30 56.91359 12.39403 26001 ft 394 kts 174°
2026-05-07 18:31 56.88640 12.40068 25502 ft 395 kts 174°
2026-05-07 18:31 56.85924 12.40732 25025 ft 395 kts 174°
2026-05-07 18:31 56.83188 12.41406 24542 ft 396 kts 173°
2026-05-07 18:31 56.80480 12.42075 24060 ft 386 kts 174°
2026-05-07 18:32 56.77861 12.42721 23569 ft 374 kts 174°
2026-05-07 18:32 56.75302 12.43351 23023 ft 371 kts 174°
2026-05-07 18:32 56.72751 12.43974 22468 ft 371 kts 174°
2026-05-07 18:32 56.70194 12.44596 21946 ft 370 kts 174°
2026-05-07 18:33 56.67641 12.45213 21409 ft 369 kts 174°
2026-05-07 18:33 56.65098 12.45830 20894 ft 368 kts 174°
2026-05-07 18:33 56.62562 12.46447 20383 ft 367 kts 174°
2026-05-07 18:33 56.60034 12.47063 19884 ft 366 kts 174°
2026-05-07 18:34 56.57559 12.47663 19388 ft 353 kts 174°
2026-05-07 18:34 56.55155 12.48243 18898 ft 343 kts 174°
2026-05-07 18:34 56.52815 12.48807 18423 ft 338 kts 174°
2026-05-07 18:34 56.50494 12.49368 17877 ft 335 kts 174°
2026-05-07 18:35 56.48197 12.49924 17335 ft 332 kts 174°
2026-05-07 18:35 56.45913 12.50475 16811 ft 332 kts 174°
2026-05-07 18:35 56.43618 12.51028 16282 ft 333 kts 173°
2026-05-07 18:35 56.41318 12.51582 15776 ft 334 kts 174°
2026-05-07 18:36 56.39017 12.52133 15267 ft 334 kts 173°
2026-05-07 18:36 56.36709 12.52683 14767 ft 335 kts 173°
2026-05-07 18:36 56.34399 12.53230 14268 ft 335 kts 173°
2026-05-07 18:36 56.32102 12.53772 13780 ft 334 kts 173°
2026-05-07 18:37 56.29791 12.54313 13238 ft 334 kts 173°
2026-05-07 18:37 56.27493 12.54851 12705 ft 333 kts 173°
2026-05-07 18:37 56.25192 12.55395 12178 ft 333 kts 173°
2026-05-07 18:37 56.22925 12.55932 11653 ft 322 kts 173°
2026-05-07 18:38 56.20750 12.56447 11221 ft 308 kts 172°
2026-05-07 18:38 56.18690 12.56936 11130 ft 295 kts 172°
2026-05-07 18:38 56.16652 12.57366 11138 ft 295 kts 178°
2026-05-07 18:38 56.14603 12.57408 11141 ft 295 kts 179°
2026-05-07 18:39 56.12550 12.57430 11143 ft 295 kts 179°
2026-05-07 18:39 56.10495 12.57447 11146 ft 295 kts 179°
2026-05-07 18:39 56.08438 12.57461 11144 ft 295 kts 179°
2026-05-07 18:39 56.06380 12.57474 11145 ft 296 kts 179°
2026-05-07 18:40 56.04323 12.57489 11147 ft 296 kts 179°
2026-05-07 18:40 56.02268 12.57506 11149 ft 295 kts 179°
2026-05-07 18:40 56.00204 12.57482 11148 ft 299 kts 181°
2026-05-07 18:40 55.98122 12.57319 11057 ft 300 kts 182°
2026-05-07 18:41 55.96032 12.57127 10665 ft 299 kts 182°
2026-05-07 18:41 55.93972 12.56755 10391 ft 295 kts 193°
2026-05-07 18:41 55.92117 12.55287 10107 ft 292 kts 215°
2026-05-07 18:41 55.90717 12.52705 9765 ft 290 kts 239°
2026-05-07 18:42 55.89980 12.49443 9621 ft 280 kts 260°
2026-05-07 18:42 55.89801 12.46066 9489 ft 271 kts 264°
2026-05-07 18:42 55.89195 12.42971 9360 ft 262 kts 235°
2026-05-07 18:42 55.87872 12.40870 9222 ft 252 kts 204°
2026-05-07 18:43 55.86215 12.40219 9089 ft 241 kts 180°
2026-05-07 18:43 55.84577 12.40280 8932 ft 232 kts 176°
2026-05-07 18:43 55.83024 12.40718 8668 ft 227 kts 155°
2026-05-07 18:43 55.81624 12.42050 8331 ft 225 kts 147°
2026-05-07 18:44 55.80303 12.43543 8008 ft 225 kts 146°
2026-05-07 18:44 55.78997 12.45061 7696 ft 224 kts 142°
2026-05-07 18:44 55.78014 12.47079 7384 ft 218 kts 110°
2026-05-07 18:44 55.77843 12.49682 7060 ft 213 kts 75°
2026-05-07 18:45 55.78432 12.52077 6708 ft 213 kts 58°
2026-05-07 18:45 55.79229 12.54347 6378 ft 213 kts 56°
2026-05-07 18:45 55.80025 12.56526 6074 ft 213 kts 55°
2026-05-07 18:45 55.80637 12.58892 5778 ft 212 kts 78°
2026-05-07 18:46 55.80807 12.61496 5473 ft 212 kts 84°
2026-05-07 18:46 55.80895 12.64157 5166 ft 212 kts 85°
2026-05-07 18:46 55.80968 12.66735 4875 ft 211 kts 85°
2026-05-07 18:46 55.81037 12.69321 4699 ft 206 kts 85°
2026-05-07 18:47 55.81102 12.71813 4557 ft 198 kts 85°
2026-05-07 18:47 55.81163 12.74233 4329 ft 195 kts 85°
2026-05-07 18:47 55.81177 12.76630 4054 ft 195 kts 98°
2026-05-07 18:47 55.80674 12.78861 3785 ft 196 kts 121°
2026-05-07 18:48 55.79926 12.80796 3692 ft 185 kts 124°
2026-05-07 18:48 55.79175 12.82588 3551 ft 177 kts 125°
2026-05-07 18:48 55.78385 12.84208 3394 ft 172 kts 146°
2026-05-07 18:48 55.77284 12.84829 3271 ft 164 kts 177°
2026-05-07 18:49 55.76175 12.84809 3140 ft 157 kts 184°
2026-05-07 18:49 55.75106 12.84680 3061 ft 153 kts 185°
2026-05-07 18:49 55.74060 12.84402 2972 ft 151 kts 204°
2026-05-07 18:49 55.73217 12.83381 2867 ft 148 kts 224°
2026-05-07 18:50 55.72438 12.82161 2679 ft 147 kts 224°
2026-05-07 18:50 55.71665 12.80955 2490 ft 149 kts 224°
2026-05-07 18:50 55.70890 12.79747 2293 ft 147 kts 224°
2026-05-07 18:50 55.70127 12.78558 2089 ft 146 kts 223°
2026-05-07 18:51 55.69367 12.77373 1892 ft 145 kts 224°
2026-05-07 18:51 55.68612 12.76197 1702 ft 143 kts 224°
2026-05-07 18:51 55.67868 12.75039 1505 ft 142 kts 224°
2026-05-07 18:51 55.67141 12.73888 1306 ft 140 kts 224°
2026-05-07 18:52 55.66416 12.72742 1102 ft 139 kts 223°
2026-05-07 18:52 55.65679 12.71630 933 ft 140 kts 223°
2026-05-07 18:52 55.64955 12.70519 743 ft 136 kts 224°
2026-05-07 18:52 55.64259 12.69418 536 ft 131 kts 222°
2026-05-07 18:53 55.63577 12.68358 334 ft 129 kts 222°
2026-05-07 18:53 55.62903 12.67308 158 ft 128 kts 221°
2026-05-07 18:53 55.62234 12.66276 36 ft 121 kts 222°
2026-05-07 18:53 55.61684 12.65429 18 ft 82 kts 221°
2026-05-07 18:54 55.61382 12.64963 22 ft 33 kts 224°
2026-05-07 18:54 55.61291 12.64756 22 ft 20 kts 241°
2026-05-07 18:54 55.61237 12.64525 18 ft 20 kts 251°
2026-05-07 18:54 55.61192 12.64277 19 ft 20 kts 257°
2026-05-07 18:55 55.61238 12.64110 18 ft 12 kts 347°
2026-05-07 18:55 55.61319 12.64162 20 ft 13 kts 32°
2026-05-07 18:55 55.61407 12.64265 21 ft 16 kts 34°
2026-05-07 18:55 55.61495 12.64362 23 ft 12 kts 31°
2026-05-07 18:56 55.61577 12.64455 23 ft 16 kts 34°
2026-05-07 18:56 55.61686 12.64562 22 ft 19 kts 11°
2026-05-07 18:56 55.61818 12.64535 23 ft 14 kts 349°
2026-05-07 18:56 55.61925 12.64497 22 ft 18 kts 348°
2026-05-07 18:57 55.62038 12.64459 20 ft 13 kts 349°
2026-05-07 18:57 55.62138 12.64426 18 ft 14 kts 349°
2026-05-07 18:57 55.62232 12.64400 17 ft 13 kts 354°
2026-05-07 18:57 55.62324 12.64420 21 ft 15 kts 15°
2026-05-07 18:58 55.62417 12.64467 19 ft 15 kts 13°
2026-05-07 18:58 55.62512 12.64447 20 ft 13 kts 341°
2026-05-07 18:58 55.62561 12.64436 22 ft 0 kts 37°
2026-05-07 18:58 55.62573 12.64450 23 ft 4 kts 35°
2026-05-07 18:59 55.62577 12.64455 24 ft 0 kts 34°